Current Version              Previous Version:    01  02  03  04  05  06  07  08  09  10  11  12  13  14  15  16  17  18  19  20  21  22  23  24  25  26  27  28  29  30  
   31  32  33  34  35  36  37  38  39  40  41  42  43  44  45  46  47  48  49  50  51  52  53  54  55  56  57  58  59  60  

[Printable]
075
ASUS44 KEWX 241502
RWRTX
SOUTH TEXAS REGIONAL WEATHER ROUNDUP
NATIONAL WEATHER SERVICE AUSTIN/SAN ANTONIO TX
900 AM CST MON NOV 24 2014

NOTE: "FAIR" INDICATED FEW OR NO CLOUDS BELOW 12,000 FEET WITH NO
SIGNIFICANT WEATHER AND/OR OBSTRUCTIONS TO VISIBILITY.

* - THESE STATIONS ARE NOT NWS OR FAA STATIONS...AND ARE NOT SUBJECT
    TO NWS AND FAA QUALITY CONTROL.

TXZ171-172-183>190-241600-
TEXAS HILL COUNTRY AND EDWARDS PLATEAU

CITY           SKY/WX    TMP DP  RH WIND       PRES   REMARKS
JUNCTION       PTSUNNY   43  32  65 W5        30.11R WCI  40
*LLANO         MOSUNNY   48  37  66 CALM      30.13R
BURNET         MOSUNNY   49  35  58 NW7       30.10R WCI  46
*HORSESHOE BAY MOSUNNY   49  36  60 NW7       30.11R WCI  46
*KERRVILLE     SUNNY     44  36  75 NW8       30.10R WCI  39
*FREDERICKSBRG MOSUNNY   45  35  69 NW9       30.08R WCI  40
*ROCKSPRINGS   PTSUNNY   46  30  53 MISG      30.12R
*BOERNE STAGE  SUNNY     50  34  53 N7        30.08R WCI  47
*CASTROVILLE   SUNNY     51  36  56 NW8       30.12R
HONDO          SUNNY     50  35  56 N8        30.13R WCI  47
*UVALDE        SUNNY     50  37  61 NW6       30.13R WCI  48
DEL RIO        SUNNY     53  35  50 NW7       30.14R
LAUGHLIN AFB   SUNNY     51  36  56 VRB2      30.14R
CARRIZO SPRGS  SUNNY     52  37  58 N7        30.12R
$$

TXZ173-191>194-202-209-217>225-228-241600-
CENTRAL AND SOUTH CENTRAL TEXAS

CITY           SKY/WX    TMP DP  RH WIND       PRES   REMARKS
GEORGETOWN     SUNNY     52  36  54 NW10      30.08R
AUSTIN/BERGSTM MOSUNNY   54  38  54 NW14      30.08R
AUSTIN/MABRY   SUNNY     52  39  61 NW5       30.09R
*AUSTIN/EXEC   SUNNY     50  37  62 NW14      30.07R WCI  45
*LAGO VISTA    SUNNY     49  36  58 NW8       30.07R WCI  46
SAN MARCOS     SUNNY     54  37  54 NW10G17   30.08R
NEW BRAUNFELS  SUNNY     57  36  45 N12       30.07R
RANDOLPH AFB   SUNNY     53  35  50 NW10      30.09R
PT SAN ANTONIO SUNNY     54  34  47 N3        30.08R
SAN ANTONIO    MOSUNNY   55  36  48 N7        30.09R
STINSON FIELD  SUNNY     55  34  45 NW8       30.08R
*PLEASANTON    SUNNY     55  37  51 NW8       30.11R
*LA GRANGE     SUNNY     53  40  62 N6        30.04R
*GIDDINGS      SUNNY     50  38  62 N7        30.09R WCI  48
*GONZALES      SUNNY     52  41  66 NW5       30.07R
$$

TXZ163>164-176>182-195>201-210>213-226-227-235-241600-
SOUTHEAST TEXAS

CITY           SKY/WX    TMP DP  RH WIND       PRES   REMARKS
COLLEGE STN    SUNNY     52  38  58 N8        30.06R
*BRYAN         SUNNY     49  39  67 NW8       30.06R WCI  46
*CALDWELL      SUNNY     50  37  62 NW10      30.08R WCI  46
*CROCKETT      SUNNY     52  41  66 CALM      30.07R
*BRENHAM       SUNNY     53  41  62 N10       30.06R
HUNTSVILLE     SUNNY     52  38  58 NW9       30.04R
CONROE         SUNNY     53  36  52 N14G22    30.04R
HOUSTON BUSH   MOSUNNY   55  38  52 N14       30.03R
HOUSTON HOBBY  MOSUNNY   55  37  50 N16G25    30.03R
*HOUSTON SW AP SUNNY     51  39  61 N8        30.03R
PEARLAND       SUNNY     56  37  49 N16G22    30.04R
HOUSTON HOOKS  SUNNY     54  38  54 N10       30.04R
ELLINGTON FLD  MOSUNNY   55  37  50 N14       30.03R
SUGAR LAND     SUNNY     56  39  53 N15G22    30.03R
*HOUSTON EXEC  SUNNY     52 N/A N/A N12       30.05R
*CLEVELAND MUN NOT AVBL
*WHARTON       SUNNY     53  42  65 N13       30.05R
*COLUMBUS      FAIR      52  39  61 N9        30.05R
$$

TXZ214>216-236>238-241600-
THE UPPER TEXAS COAST

CITY           SKY/WX    TMP DP  RH WIND       PRES   REMARKS
*ORANGE        SUNNY     54  44  70 NW13G18   30.00R
PORT ARTHUR    LGT RAIN  55  44  66 N18G25    29.98R
GALVESTON      SUNNY     55  43  63 N26G35    30.00R
ANGLETON       SUNNY     54  40  59 N22G28    30.01R
*BAY CITY        N/A     55  41  58 N16G26    30.02R
PALACIOS       SUNNY     55  41  59 N23G30    30.03R
$$

TXZ229>234-239>247-241600-
TEXAS COASTAL BEND AND RIO GRANDE PLAINS

CITY           SKY/WX    TMP DP  RH WIND       PRES   REMARKS
VICTORIA       SUNNY     57  39  51 N17G23    30.06R
*BEEVILLE      SUNNY     55  39  55 N16       30.06R
ROCKPORT       SUNNY     57  40  52 N15G23    30.05R
*PORT ARANSAS  SUNNY     56  40  56 N21G28    30.03R
*PORT LAVACA   NOT AVBL
*INGLESIDE     SUNNY     57  40  53 N20G25    30.03R
CORPUS CHRISTI MOSUNNY   57  41  55 N17       30.06R
CORPUS NAS     MOSUNNY   58  42  55 N18       30.06R
*ROBSTOWN      SUNNY     56  43  61 N12       30.05R
ALICE          SUNNY     59  40  49 N10G21    30.07R
KINGSVILLE NAS MOSUNNY   58  43  57 N14       30.08R
COTULLA        SUNNY     57  39  51 N9        30.12R
*FAITH RANCH   SUNNY     54  37  54 N10G16    30.13R
LAREDO         SUNNY     58  41  53 N10       30.14R
$$

TXZ248>255-241600-
DEEP SOUTH TEXAS

CITY           SKY/WX    TMP DP  RH WIND       PRES   REMARKS
BROWNSVILLE    MOSUNNY   63  58  83 N13G22    29.99R
PORT ISABEL    MOSUNNY   63  55  75 N18G29    30.00R
*SOUTH PADRE   MOSUNNY   64  57  77 N25G33    29.98R
HARLINGEN      SUNNY     59  50  72 N22G28    30.03R
*HEBBRONVILLE  SUNNY     55  39  56 N14G20    30.09R
MCALLEN        SUNNY     60  45  57 N18G24    30.08R
*WESLACO       SUNNY     59  48  67 N17       30.04R
FALFURRIAS     SUNNY     58  38  48 N12G23    30.07R
EDINBURG       MOSUNNY   60  45  56 N15G21    30.07R
*ZAPATA        MOSUNNY   58  41  52 N12       30.10R
$$

TXZ213>215-236>238-242>244-246-247-251-254-255-241600-
CMAN STATIONS

STATION/POSITION TIME  TEMP    WIND        PRES    WAVE
                       AIR SEA DIR/SP/G            HT/PER
                 (UTC) (F)     (DEG/KT/KT) (MB)    (FT/S)
SABINE PASS      1400   54 59  350/ 13/ 19 1014.4
SEA RIM ST PARK  1400   52     350/ 10/ 14 1014.9
NORTH JETTY/GLS  1400   54 60   30/ 21/ 27   N/A
EAGLE POINT      1400   53 59   10/ 13/ 18 1015.9
MORGANS POINT    1400   53     360/ 11/ 19 1015.9
MISSION/ARANSAS  1400          360/ 15     1017.0
PORT O`CONNOR    1400          360/ 23/ 27   N/A
PORT ARANSAS     1400   56 63  360/ 23/ 27 1016.3
MALAQUITE BEACH  1400   57 65  360/ 22/ 27 1016.3
BAFFIN BAY       1400   57 73   10/ 20/ 25 1017.0
PORT ISABEL      1400   65 66  360/ 19/ 27 1014.5
$$

GMZ080-GMZ150>470-241600-
OFFSHORE BUOY REPORTS

STATION/POSITION TIME  TEMP    WIND        PRES    WAVE
                       AIR SEA DIR/SP/G            HT/PER
                 (UTC) (F)     (DEG/KT/KT) (MB)    (FT/S)
20 E GALVESTON   1500   54 61  360/ 21/ 25 1014.6    4/ 4
90 E PT ARANSAS  1500   60 73   10/ 21/ 27 1015.0    7/ 6
35 NE PT MANSFLD 1400   64 74   20/ 21/ 27 1014.0    7/ 6
200 E PT ISABEL  1400   74 74   90/  2/  2 1011.0    4/ 7
$$